EZY634M EGKK-EGPH

Flight info

Callsign EZY634M
Flight time 0h 58m
Altitude 38000
Route LAM L10 BPK UN601 RIBEL DCT INPIP
Aircraft A319/M-SDE3FGHIRWY/LB1

Departure

Time 2026-04-23 14:28
Airport London Gatwick Airport (EGKK)

Arrival

Time 2026-04-23 15:26
Airport Edinburgh Airport (EGPH)
Time Latitude Longitude Altitude Speed Heading
2026-04-23 13:52 51.15565 -0.17816 210 ft 0 kts 348°
2026-04-23 14:09 51.15558 -0.17814 216 ft 4 kts 348°
2026-04-23 14:09 51.15531 -0.17805 215 ft 4 kts 348°
2026-04-23 14:10 51.15512 -0.17797 212 ft 4 kts 323°
2026-04-23 14:10 51.15503 -0.17768 215 ft 3 kts 258°
2026-04-23 14:10 51.15506 -0.17741 216 ft 0 kts 258°
2026-04-23 14:12 51.15502 -0.17770 215 ft 6 kts 258°
2026-04-23 14:12 51.15490 -0.17860 204 ft 11 kts 258°
2026-04-23 14:13 51.15478 -0.17950 209 ft 14 kts 257°
2026-04-23 14:13 51.15465 -0.18039 204 ft 5 kts 257°
2026-04-23 14:13 51.15464 -0.18047 206 ft 1 kts 257°
2026-04-23 14:13 51.15459 -0.18085 209 ft 6 kts 257°
2026-04-23 14:14 51.15422 -0.18151 206 ft 10 kts 191°
2026-04-23 14:14 51.15342 -0.18128 208 ft 13 kts 167°
2026-04-23 14:14 51.15250 -0.18097 204 ft 11 kts 170°
2026-04-23 14:14 51.15200 -0.18179 214 ft 13 kts 257°
2026-04-23 14:15 51.15183 -0.18339 208 ft 16 kts 261°
2026-04-23 14:15 51.15158 -0.18529 210 ft 19 kts 257°
2026-04-23 14:15 51.15127 -0.18748 213 ft 22 kts 257°
2026-04-23 14:15 51.15093 -0.18996 204 ft 24 kts 258°
2026-04-23 14:16 51.15058 -0.19267 215 ft 26 kts 257°
2026-04-23 14:16 51.15016 -0.19561 204 ft 28 kts 257°
2026-04-23 14:16 51.14974 -0.19864 204 ft 24 kts 258°
2026-04-23 14:16 51.14939 -0.20117 210 ft 23 kts 258°
2026-04-23 14:17 51.14909 -0.20333 207 ft 18 kts 257°
2026-04-23 14:17 51.14885 -0.20510 209 ft 14 kts 257°
2026-04-23 14:17 51.14864 -0.20662 203 ft 14 kts 258°
2026-04-23 14:17 51.14846 -0.20798 204 ft 11 kts 258°
2026-04-23 14:18 51.14832 -0.20901 204 ft 11 kts 257°
2026-04-23 14:18 51.14815 -0.21020 204 ft 10 kts 257°
2026-04-23 14:18 51.14799 -0.21127 204 ft 9 kts 252°
2026-04-23 14:18 51.14779 -0.21213 208 ft 9 kts 256°
2026-04-23 14:19 51.14767 -0.21303 212 ft 9 kts 257°
2026-04-23 14:19 51.14750 -0.21381 211 ft 6 kts 236°
2026-04-23 14:19 51.14730 -0.21401 204 ft 0 kts 198°
2026-04-23 14:24 51.14730 -0.21402 204 ft 1 kts 198°
2026-04-23 14:24 51.14705 -0.21400 204 ft 7 kts 169°
2026-04-23 14:24 51.14647 -0.21342 210 ft 11 kts 148°
2026-04-23 14:25 51.14620 -0.21328 204 ft 0 kts 168°
2026-04-23 14:25 51.14616 -0.21327 204 ft 3 kts 168°
2026-04-23 14:25 51.14577 -0.21311 207 ft 9 kts 161°
2026-04-23 14:26 51.14520 -0.21212 204 ft 15 kts 105°
2026-04-23 14:26 51.14524 -0.21137 203 ft 0 kts 78°
2026-04-23 14:27 51.14525 -0.21133 206 ft 4 kts 78°
2026-04-23 14:27 51.14584 -0.20706 214 ft 81 kts 77°
2026-04-23 14:27 51.14759 -0.19454 259 ft 142 kts 76°
2026-04-23 14:28 51.14956 -0.17987 1159 ft 133 kts 79°
2026-04-23 14:28 51.15159 -0.16487 1824 ft 148 kts 77°
2026-04-23 14:28 51.15398 -0.14762 2364 ft 171 kts 78°
2026-04-23 14:28 51.15671 -0.12775 2860 ft 197 kts 79°
2026-04-23 14:29 51.15975 -0.10544 3443 ft 221 kts 79°
2026-04-23 14:29 51.16323 -0.08022 4189 ft 240 kts 78°
2026-04-23 14:29 51.17088 -0.05593 5172 ft 254 kts 56°
2026-04-23 14:29 51.18174 -0.03340 6242 ft 258 kts 55°
2026-04-23 14:30 51.19285 -0.01070 7326 ft 261 kts 54°
2026-04-23 14:30 51.20538 0.01059 8371 ft 268 kts 39°
2026-04-23 14:30 51.22269 0.02268 9349 ft 280 kts 14°
2026-04-23 14:30 51.24244 0.02168 10393 ft 289 kts 355°
2026-04-23 14:31 51.26285 0.01666 10967 ft 308 kts 354°
2026-04-23 14:31 51.28434 0.01119 11598 ft 321 kts 354°
2026-04-23 14:31 51.30661 0.00540 12466 ft 327 kts 354°
2026-04-23 14:31 51.32920 -0.00043 13371 ft 331 kts 354°
2026-04-23 14:32 51.35206 -0.00626 14244 ft 335 kts 355°
2026-04-23 14:32 51.37527 -0.01214 15030 ft 339 kts 355°
2026-04-23 14:32 51.39878 -0.01806 15806 ft 343 kts 355°
2026-04-23 14:32 51.42253 -0.02401 16580 ft 347 kts 354°
2026-04-23 14:33 51.44649 -0.03003 17353 ft 351 kts 354°
2026-04-23 14:33 51.47075 -0.03612 18124 ft 355 kts 354°
2026-04-23 14:33 51.49529 -0.04224 18857 ft 359 kts 354°
2026-04-23 14:33 51.52014 -0.04845 19517 ft 363 kts 354°
2026-04-23 14:34 51.54521 -0.05476 20225 ft 366 kts 354°
2026-04-23 14:34 51.57054 -0.06117 20895 ft 370 kts 354°
2026-04-23 14:34 51.59615 -0.06764 21546 ft 375 kts 353°
2026-04-23 14:34 51.62176 -0.07411 22188 ft 379 kts 353°
2026-04-23 14:35 51.64798 -0.08073 22828 ft 383 kts 354°
2026-04-23 14:35 51.67446 -0.08747 23461 ft 388 kts 353°
2026-04-23 14:35 51.70126 -0.09433 24080 ft 392 kts 353°
2026-04-23 14:35 51.72836 -0.10154 24603 ft 397 kts 350°
2026-04-23 14:36 51.75496 -0.11453 25120 ft 404 kts 339°
2026-04-23 14:36 51.78014 -0.13546 25630 ft 409 kts 331°
2026-04-23 14:36 51.80374 -0.15805 26119 ft 412 kts 330°
2026-04-23 14:36 51.82854 -0.18169 26549 ft 416 kts 331°
2026-04-23 14:37 51.85362 -0.20555 26987 ft 421 kts 331°
2026-04-23 14:37 51.87903 -0.22974 27437 ft 425 kts 330°
2026-04-23 14:37 51.90468 -0.25423 27905 ft 429 kts 330°
2026-04-23 14:37 51.93051 -0.27898 28381 ft 432 kts 330°
2026-04-23 14:38 51.95613 -0.30357 28863 ft 435 kts 330°
2026-04-23 14:38 51.98227 -0.32867 29319 ft 438 kts 330°
2026-04-23 14:38 52.00862 -0.35400 29781 ft 442 kts 330°
2026-04-23 14:38 52.03521 -0.37957 30209 ft 446 kts 330°
2026-04-23 14:39 52.06201 -0.40534 30601 ft 450 kts 329°
2026-04-23 14:39 52.08903 -0.43135 30952 ft 453 kts 329°
2026-04-23 14:39 52.11623 -0.45759 31329 ft 456 kts 329°
2026-04-23 14:39 52.14362 -0.48407 31695 ft 458 kts 329°
2026-04-23 14:40 52.17106 -0.51067 32057 ft 460 kts 329°
2026-04-23 14:40 52.19860 -0.53742 32550 ft 459 kts 329°
2026-04-23 14:40 52.22600 -0.56407 33080 ft 458 kts 329°
2026-04-23 14:40 52.25295 -0.59035 33596 ft 457 kts 329°
2026-04-23 14:41 52.28055 -0.61727 34122 ft 456 kts 329°
2026-04-23 14:41 52.30776 -0.64386 34516 ft 457 kts 329°
2026-04-23 14:41 52.33474 -0.67026 34880 ft 458 kts 329°
2026-04-23 14:41 52.36205 -0.69702 35304 ft 457 kts 329°
2026-04-23 14:42 52.38960 -0.72407 35750 ft 455 kts 329°
2026-04-23 14:42 52.41627 -0.75031 36177 ft 453 kts 329°
2026-04-23 14:42 52.44331 -0.77690 36541 ft 453 kts 329°
2026-04-23 14:42 52.47027 -0.80341 36952 ft 451 kts 329°
2026-04-23 14:43 52.49713 -0.82989 37360 ft 449 kts 329°
2026-04-23 14:43 52.52383 -0.85628 37767 ft 448 kts 329°
2026-04-23 14:43 52.55056 -0.88273 38096 ft 447 kts 329°
2026-04-23 14:43 52.57724 -0.90913 38399 ft 448 kts 329°
2026-04-23 14:44 52.63045 -0.96193 38420 ft 444 kts 329°
2026-04-23 14:44 52.68319 -1.01432 38411 ft 441 kts 329°
2026-04-23 14:45 52.73513 -1.06618 38485 ft 434 kts 329°
2026-04-23 14:45 52.78668 -1.11782 38489 ft 433 kts 329°
2026-04-23 14:46 52.83810 -1.16939 38491 ft 435 kts 329°
2026-04-23 14:46 52.89017 -1.22184 38493 ft 436 kts 329°
2026-04-23 14:47 52.94196 -1.27417 38497 ft 435 kts 329°
2026-04-23 14:47 52.99367 -1.32666 38494 ft 436 kts 329°
2026-04-23 14:48 53.04512 -1.37886 38486 ft 436 kts 329°
2026-04-23 14:48 53.09704 -1.43165 38482 ft 437 kts 329°
2026-04-23 14:49 53.14890 -1.48468 38483 ft 438 kts 328°
2026-04-23 14:49 53.20081 -1.53785 38492 ft 438 kts 329°
2026-04-23 14:50 53.25208 -1.59044 38480 ft 428 kts 329°
2026-04-23 14:50 53.30288 -1.64276 38482 ft 428 kts 328°
2026-04-23 14:51 53.35361 -1.69510 38482 ft 428 kts 328°
2026-04-23 14:51 53.40400 -1.74726 38482 ft 428 kts 328°
2026-04-23 14:52 53.45462 -1.79983 38486 ft 428 kts 328°
2026-04-23 14:52 53.50534 -1.85263 38488 ft 428 kts 328°
2026-04-23 14:53 53.55605 -1.90558 38483 ft 429 kts 328°
2026-04-23 14:53 53.60671 -1.95860 38484 ft 429 kts 328°
2026-04-23 14:54 53.65728 -2.01176 38487 ft 428 kts 328°
2026-04-23 14:54 53.70789 -2.06516 38486 ft 429 kts 328°
2026-04-23 14:55 53.75967 -2.11412 38472 ft 423 kts 338°
2026-04-23 14:55 53.81391 -2.15079 38472 ft 418 kts 338°
2026-04-23 14:56 53.86792 -2.18778 38469 ft 419 kts 338°
2026-04-23 14:56 53.92147 -2.22452 38472 ft 417 kts 338°
2026-04-23 14:57 53.97544 -2.26157 38463 ft 418 kts 338°
2026-04-23 14:57 54.02923 -2.29862 38462 ft 417 kts 338°
2026-04-23 14:58 54.08306 -2.33576 38450 ft 418 kts 338°
2026-04-23 14:58 54.13691 -2.37304 38459 ft 418 kts 338°
2026-04-23 14:59 54.18176 -2.40425 38453 ft 418 kts 338°
2026-04-23 14:59 54.20893 -2.42320 37768 ft 425 kts 338°
2026-04-23 14:59 54.23626 -2.44225 37085 ft 425 kts 338°
2026-04-23 15:00 54.26359 -2.46124 36518 ft 422 kts 338°
2026-04-23 15:00 54.29075 -2.48017 36031 ft 418 kts 338°
2026-04-23 15:00 54.31761 -2.49895 35579 ft 414 kts 338°
2026-04-23 15:00 54.34414 -2.51752 35109 ft 410 kts 338°
2026-04-23 15:01 54.37042 -2.53591 34661 ft 406 kts 338°
2026-04-23 15:01 54.39645 -2.55415 34180 ft 402 kts 338°
2026-04-23 15:01 54.42219 -2.57225 33684 ft 398 kts 338°
2026-04-23 15:01 54.44770 -2.59022 33202 ft 394 kts 338°
2026-04-23 15:02 54.47293 -2.60805 32720 ft 390 kts 338°
2026-04-23 15:02 54.49766 -2.62555 32238 ft 387 kts 338°
2026-04-23 15:02 54.52276 -2.64333 31776 ft 383 kts 338°
2026-04-23 15:02 54.54701 -2.66050 31330 ft 380 kts 338°
2026-04-23 15:03 54.57135 -2.67777 30899 ft 377 kts 338°
2026-04-23 15:03 54.59549 -2.69492 30428 ft 374 kts 338°
2026-04-23 15:03 54.61958 -2.71207 29847 ft 374 kts 338°
2026-04-23 15:03 54.64361 -2.72921 29341 ft 373 kts 338°
2026-04-23 15:04 54.66754 -2.74626 28876 ft 371 kts 338°
2026-04-23 15:04 54.69135 -2.76322 28404 ft 369 kts 338°
2026-04-23 15:04 54.71501 -2.78009 27944 ft 367 kts 338°
2026-04-23 15:04 54.73852 -2.79691 27493 ft 364 kts 338°
2026-04-23 15:05 54.76195 -2.81367 27018 ft 363 kts 338°
2026-04-23 15:05 54.78524 -2.83033 26528 ft 361 kts 338°
2026-04-23 15:05 54.80845 -2.84696 26075 ft 359 kts 338°
2026-04-23 15:05 54.83116 -2.86328 25636 ft 357 kts 338°
2026-04-23 15:06 54.85410 -2.87981 25159 ft 356 kts 338°
2026-04-23 15:06 54.87696 -2.89631 24685 ft 354 kts 337°
2026-04-23 15:06 54.89974 -2.91277 24214 ft 353 kts 337°
2026-04-23 15:06 54.92238 -2.92916 23728 ft 352 kts 337°
2026-04-23 15:07 54.94489 -2.94544 23221 ft 350 kts 337°
2026-04-23 15:07 54.96731 -2.96165 22744 ft 348 kts 337°
2026-04-23 15:07 54.98963 -2.97783 22264 ft 347 kts 337°
2026-04-23 15:07 55.01186 -2.99401 21802 ft 345 kts 337°
2026-04-23 15:08 55.03404 -3.01013 21345 ft 344 kts 337°
2026-04-23 15:08 55.05607 -3.02616 20920 ft 342 kts 337°
2026-04-23 15:08 55.07773 -3.04199 20546 ft 340 kts 337°
2026-04-23 15:09 55.12147 -3.07400 20470 ft 342 kts 337°
2026-04-23 15:09 55.14343 -3.09007 20475 ft 342 kts 337°
2026-04-23 15:09 55.16527 -3.10609 20151 ft 338 kts 337°
2026-04-23 15:09 55.18693 -3.12202 19633 ft 336 kts 336°
2026-04-23 15:10 55.20847 -3.13785 19104 ft 335 kts 336°
2026-04-23 15:10 55.22987 -3.15391 18546 ft 334 kts 333°
2026-04-23 15:10 55.24949 -3.17512 18039 ft 330 kts 325°
2026-04-23 15:10 55.26802 -3.19771 17544 ft 326 kts 321°
2026-04-23 15:11 55.28571 -3.22250 17049 ft 323 kts 320°
2026-04-23 15:11 55.30306 -3.24719 16562 ft 320 kts 320°
2026-04-23 15:11 55.32025 -3.27157 16107 ft 317 kts 319°
2026-04-23 15:11 55.33736 -3.29582 15667 ft 314 kts 320°
2026-04-23 15:12 55.35435 -3.31973 15218 ft 312 kts 319°
2026-04-23 15:12 55.37132 -3.34351 14746 ft 311 kts 320°
2026-04-23 15:12 55.38817 -3.36711 14282 ft 308 kts 320°
2026-04-23 15:12 55.40488 -3.39069 13760 ft 306 kts 317°
2026-04-23 15:13 55.42051 -3.41589 13247 ft 304 kts 315°
2026-04-23 15:13 55.43581 -3.44131 12756 ft 301 kts 314°
2026-04-23 15:13 55.45101 -3.46657 12260 ft 299 kts 315°
2026-04-23 15:13 55.46607 -3.49172 11775 ft 297 kts 314°
2026-04-23 15:14 55.48106 -3.51671 11282 ft 296 kts 314°
2026-04-23 15:14 55.49597 -3.54158 10795 ft 294 kts 314°
2026-04-23 15:14 55.51083 -3.56634 10304 ft 292 kts 314°
2026-04-23 15:14 55.52542 -3.59058 9787 ft 290 kts 315°
2026-04-23 15:15 55.53988 -3.61463 9547 ft 278 kts 314°
2026-04-23 15:15 55.55360 -3.63741 9413 ft 263 kts 314°
2026-04-23 15:15 55.56670 -3.65910 9133 ft 255 kts 314°
2026-04-23 15:15 55.57955 -3.68038 8746 ft 252 kts 314°
2026-04-23 15:16 55.59230 -3.70155 8353 ft 250 kts 314°
2026-04-23 15:16 55.60490 -3.72252 7932 ft 248 kts 314°
2026-04-23 15:16 55.61739 -3.74335 7514 ft 246 kts 314°
2026-04-23 15:16 55.62977 -3.76407 7120 ft 244 kts 314°
2026-04-23 15:17 55.64204 -3.78466 6705 ft 242 kts 314°
2026-04-23 15:17 55.65422 -3.80509 6255 ft 241 kts 314°
2026-04-23 15:17 55.66663 -3.82502 5787 ft 241 kts 322°
2026-04-23 15:17 55.68176 -3.83779 5324 ft 243 kts 338°
2026-04-23 15:18 55.69768 -3.84786 4884 ft 242 kts 339°
2026-04-23 15:18 55.71350 -3.85771 4470 ft 241 kts 340°
2026-04-23 15:18 55.72955 -3.86419 4077 ft 239 kts 353°
2026-04-23 15:18 55.74601 -3.86725 3981 ft 239 kts 354°
2026-04-23 15:19 55.76265 -3.86699 3989 ft 240 kts 11°
2026-04-23 15:19 55.77824 -3.85656 3991 ft 241 kts 33°
2026-04-23 15:19 55.79061 -3.83689 3992 ft 239 kts 55°
2026-04-23 15:19 55.79946 -3.81198 3993 ft 237 kts 60°
2026-04-23 15:20 55.80812 -3.78694 3999 ft 238 kts 60°
2026-04-23 15:20 55.81683 -3.76172 3999 ft 238 kts 60°
2026-04-23 15:20 55.82546 -3.73671 4003 ft 235 kts 61°
2026-04-23 15:20 55.83378 -3.71257 3998 ft 220 kts 61°
2026-04-23 15:21 55.84151 -3.69012 4002 ft 207 kts 60°
2026-04-23 15:21 55.84885 -3.66877 3999 ft 199 kts 61°
2026-04-23 15:21 55.85594 -3.64808 3944 ft 198 kts 62°
2026-04-23 15:21 55.86311 -3.62716 3607 ft 200 kts 61°
2026-04-23 15:22 55.87052 -3.60553 3081 ft 207 kts 61°
2026-04-23 15:22 55.87799 -3.58374 2738 ft 206 kts 60°
2026-04-23 15:22 55.88524 -3.56260 2437 ft 193 kts 61°
2026-04-23 15:22 55.89207 -3.54262 2181 ft 183 kts 60°
2026-04-23 15:23 55.89842 -3.52402 1933 ft 169 kts 60°
2026-04-23 15:23 55.90442 -3.50645 1711 ft 163 kts 60°
2026-04-23 15:23 55.91023 -3.48939 1492 ft 160 kts 60°
2026-04-23 15:23 55.91594 -3.47265 1277 ft 155 kts 60°
2026-04-23 15:24 55.92137 -3.45681 1074 ft 145 kts 59°
2026-04-23 15:24 55.92648 -3.44161 818 ft 141 kts 59°
2026-04-23 15:24 55.93137 -3.42719 643 ft 132 kts 58°
2026-04-23 15:24 55.93602 -3.41366 488 ft 126 kts 58°
2026-04-23 15:25 55.94045 -3.40050 319 ft 122 kts 58°
2026-04-23 15:25 55.94481 -3.38772 165 ft 121 kts 59°
2026-04-23 15:25 55.94897 -3.37543 114 ft 105 kts 58°
2026-04-23 15:25 55.95189 -3.36691 111 ft 51 kts 58°
2026-04-23 15:26 55.95253 -3.36443 111 ft 14 kts 97°
2026-04-23 15:26 55.95187 -3.36344 115 ft 12 kts 148°
2026-04-23 15:26 55.95137 -3.36245 113 ft 11 kts 114°
2026-04-23 15:26 55.95112 -3.36106 115 ft 13 kts 107°
2026-04-23 15:27 55.95092 -3.36000 113 ft 7 kts 118°
2026-04-23 15:27 55.95063 -3.36026 115 ft 4 kts 237°
2026-04-23 15:27 55.95046 -3.36066 113 ft 3 kts 232°
2026-04-23 15:27 55.95037 -3.36087 114 ft 1 kts 233°
2026-04-23 15:28 55.95034 -3.36095 114 ft 0 kts 233°